Regional Weather Roundup
Issued by NWS New Orleans/Baton Rouge, LA

Home | Current Version | Previous Version | Graphics & Text | Print | Product List | Glossary On
Versions: 1 2 3 4 5 6 7 8 9 10 11 12 13 14 15 16 17 18 19 20 21 22 23 24 25 26 27 28 29 30 31 32 33 34 35 36 37 38 39 40 41 42 43 44 45 46 47 48 49 50
152
ASUS44 KLIX 020105
RWRLIX
NEW ORLEANS REGIONAL WEATHER ROUNDUP
NATIONAL WEATHER SERVICE NEW ORLEANS LA
800 PM CDT WED OCT 01 2014

NOTE: "FAIR" INDICATES FEW OR NO CLOUDS BELOW 12,000 FEET WITH NO
      SIGNIFICANT WEATHER AND/OR OBSTRUCTIONS TO VISIBILITY.
      SKY/WX - SKY CONDITION AND SIGNIFICANT WEATHER.
      TMP - AIR TEMPERATURE.     DP    - DEWPOINT TEMPERATURE.
      RH  - RELATIVE HUMIDITY.   PRES  - PRESSURE.
      HI  - HEAT INDEX.          WCI   - WIND CHILL INDEX.

*  THESE STATIONS ARE NOT NWS OR FAA STATIONS AND ARE NOT UNDER
   NWS QUALITY CONTROL.

LAZ038-040-048-061>063-065>067-069-020200-
SOUTHEAST LOUISIANA

CITY           SKY/WX    TMP DP  RH WIND       PRES   REMARKS
N.O. AUDUBON     N/A     81  78  91 MISG        N/A
N.O. INTL ARPT PTCLDY    80  75  84 SE8       29.91R
N.O. LAKEFRONT MOCLDY    80  75  84 SE9       29.92R
N.O. DOWNTOWN*   N/A     81  72  74 SE5       29.92R
SLIDELL        CLOUDY    79  73  82 CALM      29.92R
BATON ROUGE    MOCLDY    77  73  87 E7        29.90R
BOOTHVILLE     MOCLDY    79  76  90 E3        29.93R
BELLE CHASSE   MOCLDY    80  75  84 SE7       29.91R
BOGALUSA*        N/A     78  72  80 SE5       29.94R
GALLIANO*      NOT AVBL
NEW ROADS*     MOCLDY    78  73  85 SE7       29.89R
GONZALES*      CLOUDY    77  77 100 CALM      29.90R
HAMMOND*       CLOUDY    79  73  83 SE7       29.93R
HOUMA*         MOCLDY   N/A N/A N/A E3        29.91R
PORT FOURCHON* PTCLDY    81  73  78 SE6       29.94S

$$

MSZ070-080>082-020200-
SOUTHERN MISSISSIPPI

CITY           SKY/WX    TMP DP  RH WIND       PRES   REMARKS
MCCOMB         CLOUDY    78  72  81 SE7       29.93R
GULFPORT       PTCLDY    79  73  82 SE9       29.93R
BILOXI         MOCLDY    79  74  84 SE6       29.94R
PASCAGOULA     PTCLDY    75  72  90 CALM      29.94R
STENNIS ARPT*  PTCLDY    79  72  78 SE3       29.93R

$$

COASTAL OBSERVATIONS
LAKE AND NEARSHORE STATIONS

STATION/POSITION TIME  TEMP    WIND        PRES    WAVE
                       AIR SEA DIR/SP/G            HT/PER
                 (UTC) (F)     (DEG/KT/KT) (MB)    (FT/S)
PASCAGOULA       0100   80     130/  8/ 10 1013.1
WAVELAND YACHT   0100   80     140/  9/ 12 1012.6
GRAND ISLE       0100   80 81  150/  5/  8 1013.5
SOUTHWEST PASS   0100   80 85  130/  5/  9 1013.5
NEW CANAL        0100   80 78   CALM  /  3 1013.4
SHELL BEACH      0100   79 76  130/  9/ 12 1013.0

OFFSHORE STATIONS

STATION/POSITION TIME  TEMP    WIND        PRES    WAVE
                       AIR SEA DIR/SP/G            HT/PER
                 (UTC) (F)     (DEG/KT/KT) (MB)    (FT/S)
64 S DAUPHIN ISL 0009   81 83  120/ 10/ 12 1014.0    1/ 5

$$




USA.gov is the U.S. government's official web portal to all federal, state and local government web resources and services.